TimeEST,TemperatureF,Dew PointF,Humidity,Sea Level PressureIn,VisibilityMPH,Wind Direction,Wind SpeedMPH,Gust SpeedMPH,PrecipitationIn,Events,Conditions,WindDirDegrees,DateUTC
12:14 AM,41.4,39.4,93,29.88,1.2,ENE,3.5,-,N/A,,Light Drizzle,70,2012-12-08 05:14:00
12:35 AM,41.4,39.4,93,29.87,1.5,ENE,3.5,-,N/A,,Overcast,60,2012-12-08 05:35:00
12:54 AM,41.2,39.2,93,29.87,1.5,NE,3.5,-,N/A,,Overcast,40,2012-12-08 05:54:00
1:14 AM,41.0,39.2,93,29.86,1.8,NE,4.6,-,N/A,Rain,Light Rain,50,2012-12-08 06:14:00
1:35 AM,41.0,38.8,92,29.85,1.8,NE,4.6,-,N/A,,Light Drizzle,50,2012-12-08 06:35:00
1:54 AM,41.0,38.8,92,29.85,1.8,NNE,3.5,-,N/A,,Overcast,30,2012-12-08 06:54:00
2:14 AM,40.6,38.7,93,29.85,1.5,NE,5.8,-,N/A,Rain,Light Rain,40,2012-12-08 07:14:00
2:35 AM,40.5,38.7,93,29.84,1.5,NE,5.8,-,N/A,Rain,Light Rain,40,2012-12-08 07:35:00
2:54 AM,40.1,38.1,93,29.84,2.0,NE,5.8,-,N/A,Rain,Light Rain,40,2012-12-08 07:54:00
3:15 AM,39.9,37.9,93,29.84,2.5,NE,5.8,-,N/A,Rain,Light Rain,50,2012-12-08 08:15:00
3:35 AM,39.7,37.8,93,29.84,2.5,NE,4.6,-,N/A,Rain,Light Rain,40,2012-12-08 08:35:00
3:54 AM,39.6,37.8,93,29.84,2.5,NE,3.5,-,N/A,Rain,Rain,50,2012-12-08 08:54:00
4:15 AM,39.2,37.4,93,29.83,3.0,NNE,4.6,-,N/A,Rain,Light Rain,30,2012-12-08 09:15:00
4:35 AM,39.2,37.0,92,29.83,4.0,NE,5.8,-,N/A,Rain,Light Rain,40,2012-12-08 09:35:00
4:54 AM,38.8,37.0,93,29.83,4.0,NNE,5.8,-,N/A,Rain,Light Rain,30,2012-12-08 09:54:00
5:15 AM,38.7,36.9,93,29.83,4.0,NNE,6.9,-,N/A,Rain,Rain,30,2012-12-08 10:15:00
5:35 AM,38.3,36.5,93,29.83,5.0,NNE,6.9,-,N/A,Rain,Light Rain,20,2012-12-08 10:35:00
6:15 AM,37.6,35.6,93,29.82,7.0,NE,8.1,-,N/A,Rain,Light Rain,40,2012-12-08 11:15:00
6:35 AM,36.9,34.9,93,29.83,10.0,NE,10.4,-,N/A,Rain,Light Rain,40,2012-12-08 11:35:00
6:54 AM,36.9,34.7,92,29.84,10.0,NE,3.5,-,N/A,Rain,Light Rain,40,2012-12-08 11:54:00
7:15 AM,36.3,34.2,92,29.83,10.0,NE,8.1,-,N/A,Rain,Light Rain,50,2012-12-08 12:15:00
7:34 AM,36.1,34.0,92,29.84,10.0,NNE,5.8,-,N/A,,Light Drizzle,30,2012-12-08 12:34:00
7:55 AM,36.0,33.8,92,29.84,7.0,North,4.6,-,N/A,Rain,Light Rain,360,2012-12-08 12:55:00
8:14 AM,35.6,33.4,92,29.85,7.0,North,5.8,-,N/A,Rain,Rain,350,2012-12-08 13:14:00
8:34 AM,34.9,32.9,92,29.87,2.0,North,4.6,-,N/A,Rain,Rain,350,2012-12-08 13:34:00
8:55 AM,34.5,32.4,92,29.87,1.8,North,4.6,-,N/A,Rain,Light Rain,360,2012-12-08 13:55:00
9:14 AM,34.0,32.0,92,29.88,1.2,NNE,3.5,-,N/A,Snow,Light Snow,20,2012-12-08 14:14:00
9:34 AM,34.0,32.2,93,29.90,1.5,NNW,5.8,-,N/A,Snow,Light Snow,330,2012-12-08 14:34:00
9:54 AM,33.6,32.0,94,29.91,1.0,North,4.6,-,N/A,Snow,Light Snow,360,2012-12-08 14:54:00
10:14 AM,33.3,32.0,95,29.91,1.8,North,6.9,-,N/A,Snow,Light Snow,350,2012-12-08 15:14:00
10:35 AM,33.8,32.0,93,29.92,2.5,North,5.8,-,N/A,Snow,Light Snow,10,2012-12-08 15:35:00
10:54 AM,33.4,32.0,94,29.92,2.5,North,6.9,-,N/A,Snow,Light Snow,10,2012-12-08 15:54:00
11:14 AM,33.4,32.0,94,29.92,3.0,NNE,4.6,-,N/A,Snow,Light Snow,20,2012-12-08 16:14:00
11:35 AM,33.8,32.0,93,29.92,5.0,NNE,5.8,-,N/A,,Overcast,20,2012-12-08 16:35:00
11:54 AM,34.0,32.0,92,29.93,4.0,North,5.8,-,N/A,Snow,Light Snow,350,2012-12-08 16:54:00
12:15 PM,34.0,32.0,92,29.93,4.0,North,5.8,-,N/A,,Overcast,360,2012-12-08 17:15:00
12:35 PM,34.2,32.2,92,29.92,7.0,North,6.9,-,N/A,,Overcast,360,2012-12-08 17:35:00
12:54 PM,34.3,32.2,92,29.91,5.0,North,4.6,-,N/A,,Overcast,360,2012-12-08 17:54:00
1:15 PM,34.3,32.2,92,29.92,10.0,NNW,6.9,-,N/A,,Overcast,340,2012-12-08 18:15:00
1:35 PM,34.7,32.5,92,29.93,10.0,North,5.8,-,N/A,,Overcast,360,2012-12-08 18:35:00
1:54 PM,35.1,32.7,91,29.94,10.0,North,5.8,-,N/A,,Overcast,360,2012-12-08 18:54:00
2:15 PM,35.4,32.9,91,29.95,10.0,North,5.8,-,N/A,,Overcast,350,2012-12-08 19:15:00
2:35 PM,34.9,32.2,90,29.96,10.0,North,5.8,-,N/A,,Overcast,350,2012-12-08 19:35:00
2:54 PM,34.7,32.0,90,29.97,10.0,NNW,4.6,-,N/A,,Overcast,340,2012-12-08 19:54:00
3:34 PM,35.1,32.4,90,30.00,10.0,North,5.8,-,N/A,,Overcast,350,2012-12-08 20:34:00
3:54 PM,34.2,31.8,91,30.00,10.0,North,5.8,-,N/A,,Overcast,350,2012-12-08 20:54:00
4:15 PM,34.0,32.0,92,30.01,7.0,North,5.8,-,N/A,,Overcast,10,2012-12-08 21:15:00
4:34 PM,33.8,31.1,90,30.03,10.0,North,6.9,-,N/A,,Overcast,350,2012-12-08 21:34:00
4:54 PM,33.3,30.7,90,30.04,10.0,NNE,4.6,-,N/A,,Overcast,30,2012-12-08 21:54:00
5:15 PM,33.3,30.7,90,30.05,10.0,North,4.6,-,N/A,,Overcast,360,2012-12-08 22:15:00
5:34 PM,32.9,30.2,90,30.05,10.0,North,5.8,-,N/A,,Overcast,350,2012-12-08 22:34:00
5:55 PM,32.9,30.0,89,30.06,10.0,North,6.9,-,N/A,,Overcast,350,2012-12-08 22:55:00
6:15 PM,32.9,30.0,89,30.07,10.0,North,4.6,-,N/A,,Overcast,360,2012-12-08 23:15:00
6:34 PM,32.9,30.0,89,30.08,10.0,North,5.8,-,N/A,,Overcast,10,2012-12-08 23:34:00
6:55 PM,32.5,29.7,89,30.09,10.0,North,4.6,-,N/A,,Overcast,360,2012-12-08 23:55:00
7:15 PM,32.5,29.5,88,30.10,10.0,North,3.5,-,N/A,,Overcast,10,2012-12-09 00:15:00
7:34 PM,32.4,28.6,86,30.10,10.0,NE,4.6,-,N/A,,Overcast,40,2012-12-09 00:34:00
7:55 PM,32.5,28.4,85,30.11,10.0,NNE,4.6,-,N/A,,Overcast,20,2012-12-09 00:55:00
8:14 PM,32.5,28.4,85,30.12,10.0,NNE,5.8,-,N/A,,Overcast,30,2012-12-09 01:14:00
8:35 PM,32.5,28.0,83,30.12,10.0,NNE,3.5,-,N/A,,Overcast,20,2012-12-09 01:35:00
8:55 PM,32.5,28.0,83,30.12,10.0,NNE,5.8,-,N/A,,Overcast,30,2012-12-09 01:55:00
9:14 PM,32.7,28.0,83,30.13,10.0,NE,4.6,-,N/A,,Overcast,50,2012-12-09 02:14:00
9:35 PM,32.9,27.7,81,30.12,10.0,ENE,5.8,-,N/A,,Overcast,60,2012-12-09 02:35:00
9:55 PM,32.7,27.7,82,30.12,10.0,ENE,4.6,-,N/A,,Overcast,60,2012-12-09 02:55:00
10:14 PM,32.5,27.7,82,30.12,10.0,Calm,Calm,-,N/A,,Overcast,0,2012-12-09 03:14:00
10:35 PM,32.4,28.0,84,30.15,10.0,Calm,Calm,-,N/A,,Overcast,0,2012-12-09 03:35:00
10:54 PM,32.9,28.2,83,30.14,10.0,Calm,Calm,-,N/A,,Overcast,0,2012-12-09 03:54:00
11:14 PM,32.4,28.6,86,30.15,10.0,Calm,Calm,-,N/A,,Overcast,0,2012-12-09 04:14:00
11:35 PM,32.4,28.6,86,30.15,10.0,Calm,Calm,-,N/A,,Overcast,0,2012-12-09 04:35:00
11:54 PM,32.5,28.9,87,30.16,10.0,Calm,Calm,-,N/A,,Overcast,0,2012-12-09 04:54:00